Holloman AFB, NM

6:06 PM MST on December 07, 2016 (GMT -0700)
Holloman Air Force Base

Weather History for KHMN - February, 2014

Change the Weather History Date:

Monday, February 24, 2014

  Actual Average Record
Temperature  
Mean Temperature 54 °F -  
Max Temperature 72 °F 58 °F 78 °F (2009)
Min Temperature 37 °F 31 °F 23 °F (2015)
Degree Days  
Heating Degree Days 10    
Growing Degree Days 4 (Base 50)    
Moisture  
Dew Point 20 °F    
Average Humidity 24    
Maximum Humidity 42    
Minimum Humidity 12    
Precipitation  
Precipitation 0.00 in - - ()
Sea Level Pressure  
Sea Level Pressure 29.95 in    
Wind  
Wind Speed 5 mph (SE)    
Max Wind Speed 9 mph    
Max Gust Speed -    
Visibility 10 miles    
Events      
Averages and records for this station are not official NWS values.
T = Trace of Precipitation, MM = Missing Value Source: NWS Daily Summary

Daily Weather History Graph

Daily Weather History Graph

Search for Another Location

Airport or City:

Trip Planner

Search our weather history database for the weather conditions in past years. The results will help you decide how hot, cold, wet, or windy it might be!

Date:

Astronomy

Feb. 24, 2014 Rise Set
Actual Time 6:38 AM MST 5:57 PM MST
Civil Twilight 6:13 AM MST 6:22 PM MST
Nautical Twilight 5:44 AM MST 6:51 PM MST
Astronomical Twilight 5:15 AM MST 7:19 PM MST
Moon 2:29 AM MST (2/24) 1:11 PM MST (2/24)
Length of Visible Light 12h 09m
Length of Day
11h 19m
Waning Crescent, 27% of the Moon is Illuminated
Feb 24
Waning Crescent
Mar 1
New
Mar 8
First Quarter
Mar 16
Full
Mar 23
Last Quarter

Hourly Weather History & Observations

Time (MST) Temp. Dew Point Humidity Pressure Visibility Wind Dir Wind Speed Gust Speed Precip Events Conditions
12:58 AM 55.8 °F 18.1 °F 23% 30.03 in 10.0 mi SE 8.1 mph - N/A   Clear
1:58 AM 54.0 °F 18.1 °F 25% 30.03 in 10.0 mi SE 5.8 mph - N/A   Clear
2:58 AM 50.0 °F 19.0 °F 29% 30.03 in 10.0 mi ESE 5.8 mph - N/A   Clear
3:58 AM 49.5 °F 20.7 °F 32% 30.02 in 10.0 mi East 4.6 mph - N/A   Clear
4:58 AM 47.3 °F 20.5 °F 35% 30.03 in 10.0 mi ENE 4.6 mph - N/A   Clear
5:58 AM 43.2 °F 18.7 °F 38% 30.06 in 10.0 mi North 2.3 mph - N/A   Clear
6:58 AM 37.9 °F 16.3 °F 42% 30.08 in 10.0 mi NE 2.3 mph - N/A   Clear
7:58 AM 50.0 °F 20.7 °F 32% 30.00 in 10.0 mi East 3.5 mph - N/A   Clear
8:58 AM 59.4 °F 23.0 °F 25% 30.00 in 10.0 mi South 5.8 mph - N/A   Clear
9:58 AM 60.4 °F 22.6 °F 23% 29.99 in 10.0 mi North 2.3 mph - N/A   Partly Cloudy
10:58 AM 65.8 °F 20.8 °F 18% 29.98 in 10.0 mi Calm Calm - N/A   Clear
11:58 AM 69.1 °F 16.5 °F 13% 29.95 in 10.0 mi Calm Calm - N/A   Partly Cloudy
12:58 PM 71.2 °F 16.5 °F 12% 29.90 in 10.0 mi West 8.1 mph - N/A   Clear
1:58 PM 72.9 °F 18.5 °F 13% 29.87 in 10.0 mi West 9.2 mph - N/A   Clear
2:58 PM 72.5 °F 19.4 °F 13% 29.86 in 10.0 mi West 5.8 mph - N/A   Clear
3:58 PM 72.3 °F 20.3 °F 14% 29.85 in 10.0 mi WSW 3.5 mph - N/A   Clear
4:58 PM 71.8 °F 20.5 °F 14% 29.85 in 10.0 mi North 1.2 mph - N/A   Clear
5:58 PM 68.5 °F 22.5 °F 18% 29.88 in 10.0 mi SSE 3.5 mph - N/A   Clear
6:58 PM 63.5 °F 21.7 °F 20% 29.90 in 10.0 mi SSE 5.8 mph - N/A   Clear
7:58 PM 60.6 °F 21.7 °F 22% 29.90 in 10.0 mi SSW 2.3 mph - N/A   Clear
8:58 PM 57.4 °F 21.6 °F 25% 29.90 in 10.0 mi SE 9.2 mph - N/A   Clear
9:58 PM 58.3 °F 21.9 °F 25% 29.89 in 10.0 mi SSE 8.1 mph - N/A   Clear
10:58 PM 55.8 °F 22.1 °F 27% 29.89 in 10.0 mi SSE 5.8 mph - N/A   Clear
11:58 PM 53.1 °F 21.2 °F 29% 29.88 in 10.0 mi SSE 6.9 mph - N/A   Clear